Weather Roundup
Issued by NWS

Home | Current Version | Previous Version | Graphics & Text | Print | Product List | Glossary Off
Versions: 1 2 3 4 5 6 7 8 9 10 11 12 13 14 15 16 17 18 19 20 21 22 23 24 25 26 27 28 29 30 31 32 33 34 35 36 37 38 39 40 41 42 43 44 45 46 47 48 49 50

000
NZUS93 KARX 271459
HRRWXR

CURRENT HOURLY OBSERVATIONS ACROSS
MUCH OF THE UPPER MISSISSIPPI VALLEY
NATIONAL WEATHER SERVICE LA CROSSE WI
1000 AM CDT THU APR 27 2017


...SOUTHEAST MINNESOTA...


CITY           SKY/WX    TMP DP  RH WIND       PRES   REMARKS
ROCHESTER      LGT SNOW  34  33  96 NW15      29.53R FOG     WCI  24
ROCHESTER/MAYO CLOUDY    35  35 100 W15G22    29.53S WCI  25
WINONA         CLOUDY    36  32  87 NW10      29.52S WCI  28
AUSTIN         CLOUDY    34  28  80 NW16      29.56R WCI  23
ALBERT LEA     CLOUDY    32  28  86 NW13G18   29.57R WCI  22
DODGE CENTER   CLOUDY    34  30  86 NW9       29.54R WCI  26
PRESTON        CLOUDY    34  32  92 NW15      29.53S FOG     WCI  24
OWATONNA       CLOUDY    34  28  80 NW14G20   29.56R WCI  24
FARIBAULT      CLOUDY    34  30  86 W12       29.56R WCI  25
$$

...ELSEWHERE IN MINNESOTA...


CITY           SKY/WX    TMP DP  RH WIND       PRES   REMARKS
MINNEAPOLIS    CLOUDY    33  27  78 N12       29.56R WCI  24
INTNL FALLS    CLOUDY    23  14  68 N10G20    29.59F WCI  12
DULUTH         CLOUDY    24  20  84 N10       29.49S WCI  14
RED WING       LGT SNOW  34  28  80 N6        29.53S WCI  29
REDWOOD FALLS  FLURRIES  31  26  82 NW15G22   29.60S WCI  20
MANKATO          N/A     34  29  82 NW14      29.58R WCI  25
WORTHINGTON      N/A     32  24  72 NW21G26   29.64  WCI  20
FAIRMONT       CLOUDY    31  27  85 NW17      29.62R WCI  19
$$

...SOUTHWEST WISCONSIN...


CITY           SKY/WX    TMP DP  RH WIND       PRES   REMARKS
LA CROSSE      CLOUDY    39  32  76 NW10      29.51R WCI  32
PRAIRIE DU CHI CLOUDY    37  36  96 W14G21    29.53R WCI  28
BOSCOBEL       LGT RAIN  39  36  89 W9        29.53R FOG     WCI  33
LONE ROCK      LGT SNOW  36  34  93 W9        29.51R FOG     WCI  29
PLATTEVILLE    CLOUDY    38  38 100 W16       29.53R WCI  29
FORT MC COY    CLOUDY    33  32  96 W7        29.49R WCI  27
MAUSTON-NEW LI SNOW      32  32  97 W9        29.45R VSB 1/2 WCI  25
VIROQUA        CLOUDY    33  32  94 NW12      29.48R WCI  25
WIS DELLS      LGT SNOW  33  32  98 W13G18    29.45R VSB 1   WCI  23
$$

...ELSEWHERE IN WISCONSIN...


CITY           SKY/WX    TMP DP  RH WIND       PRES   REMARKS
MILWAUKEE      LGT RAIN  47  42  83 W20G32    29.42R
MADISON        LGT SNOW  36  33  89 VRB6G16   29.47R FOG     WCI  31
GREEN BAY      LGT RAIN  41  40  96 NW13      29.32R FOG
EAU CLAIRE     CLOUDY    32  29  88 NW10      29.48S WCI  24
BLACK RVR FLS  CLOUDY    34  33  96 NW5       29.47R WCI  30
MEDFORD        LGT SNOW  28  27  93 NW10G17   29.39R VSB 1   WCI  19
WAUSAU         MIX PCPN  32  31  96 NW12G18   29.37R FOG     WCI  23
WIS RAPIDS     LGT SNOW  33  32  96 NW12      29.43R VSB 3/4 WCI  24
MARSHFIELD     LGT SNOW  30  28  92 NW16      29.40R VSB 1   WCI  19
RICE LAKE      CLOUDY    30  27  90 NW7       29.51S WCI  23
$$

...NORTHEAST IOWA...


CITY           SKY/WX    TMP DP  RH WIND       PRES   REMARKS
WATERLOO       CLOUDY    36  31  82 W14       29.60R WCI  27
DUBUQUE        CLOUDY    38  34  85 W15G25    29.55R WCI  29
DECORAH        CLOUDY    36  34  93 W9G24     29.52S WCI  29
MASON CITY     CLOUDY    34  31  88 W17       29.61R WCI  23
CHARLES CITY   CLOUDY    36  32  87 W14       29.58R WCI  27
OELWEIN        CLOUDY    37  34  87 W21       29.58R WCI  27
$$

...ELSEWHERE IN IOWA...


CITY           SKY/WX    TMP DP  RH WIND       PRES   REMARKS
DES MOINES     CLOUDY    39  30  70 NW18      29.67R WCI  30
IOWA CITY      CLOUDY    40 N/A N/A W16G24    29.64R WCI  31
FORT DODGE     CLOUDY    34  25  69 W10G18    29.66R WCI  26
MARSHALLTOWN   LGT SNOW  36  31  82 W17       29.64R WCI  26
CEDAR RAPIDS   LGT RAIN  36  35  96 W16       29.61R FOG     WCI  26
$$

...NORTHERN ILLINOIS...


CITY           SKY/WX    TMP DP  RH WIND       PRES   REMARKS
CHICAGO-OHARE  CLOUDY    47  41  80 W21G30    29.49R
CHICAGO-MIDWAY CLOUDY    48  41  76 W20G30    29.51R
MOLINE         CLOUDY    41  34  76 W20       29.61R
ROCKFORD       LGT RAIN  41  37  86 W14G22    29.54R
PEORIA         CLOUDY    44  39  82 W15G21    29.65R
$$

NOTE: "FAIR" INDICATES FEW OR NO CLOUDS BELOW 12,000 FEET WITH NO
SIGNIFICANT WEATHER AND/OR OBSTRUCTIONS TO VISIBILITY. WIND
SPEEDS ARE IN MILES-PER-HOUR.




USA.gov is the U.S. government's official web portal to all federal, state and local government web resources and services.